ITY120 LIMC-LGSK

Flight info

Callsign ITY120
Flight time 1h 55m
Altitude 39000
Route VAKON DCT IBUPU DCT NIKOL DCT TAZ DCT MAVAR DCT TALAS UN130 TSL
Aircraft A320/M-SDE3FGHIRWY/LB1

Departure

Time 2026-04-20 17:03
Airport Milan Malpensa International Airport (LIMC)

Arrival

Time 2026-04-20 18:58
Airport Skiathos Island National Airport (LGSK)
Time Latitude Longitude Altitude Speed Heading
2026-04-20 16:41 45.62910 8.71869 749 ft 0 kts 79°
2026-04-20 16:55 45.62913 8.71905 748 ft 6 kts 92°
2026-04-20 16:55 45.62894 8.71953 751 ft 5 kts 138°
2026-04-20 16:55 45.62841 8.71980 752 ft 12 kts 167°
2026-04-20 16:55 45.62735 8.72010 750 ft 19 kts 169°
2026-04-20 16:56 45.62584 8.72051 751 ft 23 kts 169°
2026-04-20 16:56 45.62419 8.72096 752 ft 25 kts 168°
2026-04-20 16:56 45.62245 8.72145 751 ft 26 kts 168°
2026-04-20 16:56 45.62062 8.72198 751 ft 27 kts 169°
2026-04-20 16:57 45.61873 8.72249 750 ft 28 kts 168°
2026-04-20 16:57 45.61656 8.72311 748 ft 36 kts 169°
2026-04-20 16:57 45.61450 8.72360 753 ft 28 kts 175°
2026-04-20 16:57 45.61361 8.72214 750 ft 18 kts 222°
2026-04-20 16:58 45.61246 8.72221 753 ft 18 kts 167°
2026-04-20 16:58 45.61109 8.72263 752 ft 22 kts 168°
2026-04-20 16:58 45.60946 8.72304 749 ft 26 kts 169°
2026-04-20 16:58 45.60761 8.72355 753 ft 29 kts 169°
2026-04-20 16:59 45.60636 8.72522 751 ft 27 kts 99°
2026-04-20 16:59 45.60617 8.72792 754 ft 28 kts 96°
2026-04-20 16:59 45.60596 8.73076 750 ft 29 kts 96°
2026-04-20 16:59 45.60681 8.73299 752 ft 28 kts 24°
2026-04-20 17:00 45.61059 8.73364 751 ft 29 kts 348°
2026-04-20 17:00 45.61259 8.73305 752 ft 30 kts 348°
2026-04-20 17:00 45.61468 8.73246 749 ft 31 kts 349°
2026-04-20 17:01 45.61616 8.73290 753 ft 21 kts 82°
2026-04-20 17:01 45.61606 8.73489 750 ft 22 kts 116°
2026-04-20 17:01 45.61612 8.73706 744 ft 24 kts 43°
2026-04-20 17:01 45.61704 8.73714 744 ft 0 kts 348°
2026-04-20 17:02 45.61705 8.73714 742 ft 4 kts 348°
2026-04-20 17:02 45.62028 8.73621 742 ft 86 kts 349°
2026-04-20 17:02 45.62831 8.73397 743 ft 146 kts 348°
2026-04-20 17:03 45.63959 8.73092 1040 ft 169 kts 350°
2026-04-20 17:03 45.65127 8.73057 1719 ft 173 kts 19°
2026-04-20 17:03 45.66077 8.74121 2258 ft 185 kts 60°
2026-04-20 17:03 45.66596 8.75920 2614 ft 207 kts 64°
2026-04-20 17:04 45.67557 8.77489 3246 ft 214 kts 38°
2026-04-20 17:04 45.68707 8.78814 4050 ft 216 kts 39°
2026-04-20 17:04 45.69880 8.80187 4834 ft 220 kts 39°
2026-04-20 17:04 45.71065 8.81584 5598 ft 222 kts 39°
2026-04-20 17:05 45.72241 8.83084 6206 ft 237 kts 52°
2026-04-20 17:05 45.72805 8.85324 6743 ft 249 kts 92°
2026-04-20 17:05 45.72269 8.87655 7464 ft 252 kts 129°
2026-04-20 17:05 45.71101 8.89535 8301 ft 255 kts 132°
2026-04-20 17:06 45.69970 8.91516 9149 ft 259 kts 128°
2026-04-20 17:06 45.68891 8.93566 9963 ft 264 kts 127°
2026-04-20 17:06 45.67791 8.95738 10713 ft 269 kts 126°
2026-04-20 17:06 45.66706 8.97908 11424 ft 275 kts 126°
2026-04-20 17:07 45.65582 9.00154 12145 ft 281 kts 126°
2026-04-20 17:07 45.64600 9.02595 12849 ft 287 kts 112°
2026-04-20 17:07 45.63995 9.05420 13176 ft 309 kts 102°
2026-04-20 17:07 45.63467 9.08516 13422 ft 332 kts 102°
2026-04-20 17:08 45.62894 9.11834 13647 ft 356 kts 103°
2026-04-20 17:08 45.62280 9.15340 13858 ft 375 kts 103°
2026-04-20 17:08 45.61625 9.19029 14418 ft 384 kts 103°
2026-04-20 17:08 45.60957 9.22746 15030 ft 389 kts 103°
2026-04-20 17:09 45.60275 9.26518 15663 ft 395 kts 104°
2026-04-20 17:09 45.59596 9.30287 16279 ft 400 kts 104°
2026-04-20 17:09 45.58901 9.34156 16892 ft 405 kts 104°
2026-04-20 17:09 45.58200 9.38077 17679 ft 410 kts 104°
2026-04-20 17:10 45.57490 9.42046 18302 ft 415 kts 104°
2026-04-20 17:10 45.56769 9.46061 18842 ft 420 kts 104°
2026-04-20 17:10 45.56037 9.50111 19398 ft 424 kts 104°
2026-04-20 17:10 45.55312 9.54212 19953 ft 428 kts 103°
2026-04-20 17:11 45.54617 9.58367 20532 ft 431 kts 103°
2026-04-20 17:11 45.53946 9.62539 21093 ft 435 kts 102°
2026-04-20 17:11 45.53276 9.66761 21640 ft 439 kts 102°
2026-04-20 17:11 45.52598 9.71027 22048 ft 442 kts 102°
2026-04-20 17:12 45.51915 9.75261 22587 ft 446 kts 102°
2026-04-20 17:12 45.51209 9.79582 23126 ft 450 kts 103°
2026-04-20 17:12 45.50490 9.83942 23610 ft 454 kts 103°
2026-04-20 17:12 45.49759 9.88332 24022 ft 457 kts 103°
2026-04-20 17:13 45.49019 9.92759 24437 ft 461 kts 103°
2026-04-20 17:13 45.48242 9.97204 24844 ft 464 kts 107°
2026-04-20 17:13 45.47104 10.01518 25232 ft 467 kts 116°
2026-04-20 17:13 45.45561 10.05588 25623 ft 469 kts 122°
2026-04-20 17:14 45.43924 10.09620 26000 ft 472 kts 122°
2026-04-20 17:14 45.42298 10.13627 26377 ft 475 kts 122°
2026-04-20 17:14 45.40645 10.17707 26755 ft 478 kts 121°
2026-04-20 17:14 45.38980 10.21821 27118 ft 481 kts 121°
2026-04-20 17:15 45.37305 10.25955 27477 ft 484 kts 121°
2026-04-20 17:15 45.35616 10.30112 27828 ft 487 kts 122°
2026-04-20 17:15 45.33915 10.34288 28178 ft 490 kts 122°
2026-04-20 17:15 45.32200 10.38488 28519 ft 493 kts 122°
2026-04-20 17:16 45.30475 10.42703 28847 ft 495 kts 122°
2026-04-20 17:16 45.28761 10.46891 29145 ft 498 kts 122°
2026-04-20 17:16 45.27016 10.51154 29470 ft 501 kts 121°
2026-04-20 17:16 45.25261 10.55438 29786 ft 503 kts 121°
2026-04-20 17:17 45.23500 10.59733 30065 ft 506 kts 121°
2026-04-20 17:17 45.21723 10.64058 30313 ft 508 kts 121°
2026-04-20 17:17 45.19934 10.68389 30561 ft 510 kts 122°
2026-04-20 17:17 45.18138 10.72734 30799 ft 512 kts 121°
2026-04-20 17:18 45.16566 10.77275 31021 ft 515 kts 114°
2026-04-20 17:18 45.15165 10.81881 31264 ft 516 kts 114°
2026-04-20 17:18 45.13740 10.86549 31583 ft 516 kts 114°
2026-04-20 17:18 45.12310 10.91209 31891 ft 516 kts 114°
2026-04-20 17:19 45.10875 10.95853 32200 ft 516 kts 114°
2026-04-20 17:19 45.09433 11.00504 32501 ft 516 kts 114°
2026-04-20 17:19 45.07990 11.05154 32805 ft 516 kts 114°
2026-04-20 17:19 45.06550 11.09796 33115 ft 516 kts 114°
2026-04-20 17:20 45.05111 11.14438 33425 ft 516 kts 114°
2026-04-20 17:20 45.03688 11.19022 33738 ft 516 kts 114°
2026-04-20 17:20 45.02247 11.23661 34001 ft 516 kts 114°
2026-04-20 17:20 45.00803 11.28291 34341 ft 514 kts 114°
2026-04-20 17:21 44.99359 11.32912 34649 ft 513 kts 114°
2026-04-20 17:21 44.97920 11.37512 34941 ft 512 kts 114°
2026-04-20 17:21 44.96483 11.42098 35226 ft 511 kts 114°
2026-04-20 17:21 44.95055 11.46635 35498 ft 510 kts 114°
2026-04-20 17:22 44.93601 11.51240 35771 ft 509 kts 114°
2026-04-20 17:22 44.92162 11.55794 36020 ft 508 kts 114°
2026-04-20 17:22 44.90725 11.60337 36267 ft 507 kts 114°
2026-04-20 17:22 44.89306 11.64821 36507 ft 507 kts 114°
2026-04-20 17:23 44.87871 11.69352 36732 ft 506 kts 114°
2026-04-20 17:23 44.86437 11.73876 36965 ft 505 kts 114°
2026-04-20 17:23 44.85002 11.78392 37193 ft 504 kts 115°
2026-04-20 17:23 44.83567 11.82895 37410 ft 504 kts 115°
2026-04-20 17:24 44.82130 11.87395 37638 ft 504 kts 115°
2026-04-20 17:24 44.80690 11.91894 37809 ft 504 kts 115°
2026-04-20 17:24 44.79247 11.96394 37989 ft 504 kts 115°
2026-04-20 17:24 44.77825 12.00824 38189 ft 503 kts 115°
2026-04-20 17:25 44.76383 12.05311 38385 ft 503 kts 115°
2026-04-20 17:25 44.74940 12.09790 38562 ft 502 kts 115°
2026-04-20 17:25 44.73499 12.14257 38692 ft 502 kts 115°
2026-04-20 17:25 44.72057 12.18728 38858 ft 501 kts 115°
2026-04-20 17:26 44.70615 12.23191 38897 ft 501 kts 115°
2026-04-20 17:26 44.67723 12.32110 38912 ft 501 kts 115°
2026-04-20 17:27 44.64842 12.40954 38909 ft 501 kts 115°
2026-04-20 17:27 44.61940 12.49850 38909 ft 501 kts 115°
2026-04-20 17:28 44.59029 12.58729 38906 ft 500 kts 115°
2026-04-20 17:28 44.56115 12.67576 38923 ft 500 kts 115°
2026-04-20 17:29 44.53218 12.76374 38929 ft 500 kts 115°
2026-04-20 17:29 44.50294 12.85213 38930 ft 500 kts 115°
2026-04-20 17:30 44.47361 12.94051 38941 ft 500 kts 115°
2026-04-20 17:30 44.44416 13.02872 38909 ft 500 kts 115°
2026-04-20 17:31 44.41484 13.11622 38926 ft 500 kts 115°
2026-04-20 17:31 44.38529 13.20429 38942 ft 500 kts 115°
2026-04-20 17:32 44.35568 13.29234 38941 ft 500 kts 115°
2026-04-20 17:32 44.32602 13.38027 38940 ft 500 kts 115°
2026-04-20 17:33 44.29624 13.46816 38942 ft 500 kts 115°
2026-04-20 17:33 44.26662 13.55527 38955 ft 501 kts 115°
2026-04-20 17:34 44.23669 13.64305 38953 ft 501 kts 115°
2026-04-20 17:34 44.20665 13.73054 38952 ft 500 kts 116°
2026-04-20 17:35 44.17640 13.81790 38942 ft 500 kts 116°
2026-04-20 17:35 44.14601 13.90505 38950 ft 500 kts 116°
2026-04-20 17:36 44.11575 13.99157 38956 ft 501 kts 116°
2026-04-20 17:36 44.08524 14.07868 38959 ft 501 kts 116°
2026-04-20 17:37 44.05467 14.16579 38966 ft 501 kts 116°
2026-04-20 17:37 44.02404 14.25286 38971 ft 501 kts 116°
2026-04-20 17:38 43.99350 14.33923 38968 ft 502 kts 116°
2026-04-20 17:38 43.96273 14.42614 38971 ft 502 kts 116°
2026-04-20 17:39 43.93184 14.51307 38974 ft 502 kts 116°
2026-04-20 17:39 43.90088 14.59984 38975 ft 502 kts 116°
2026-04-20 17:40 43.86982 14.68656 38981 ft 502 kts 116°
2026-04-20 17:40 43.83871 14.77322 38980 ft 502 kts 117°
2026-04-20 17:41 43.80772 14.85925 38978 ft 502 kts 117°
2026-04-20 17:41 43.77648 14.94574 38988 ft 502 kts 117°
2026-04-20 17:42 43.74520 15.03211 38979 ft 502 kts 117°
2026-04-20 17:42 43.71388 15.11830 38982 ft 501 kts 117°
2026-04-20 17:43 43.68254 15.20439 38974 ft 501 kts 117°
2026-04-20 17:43 43.65133 15.28965 38983 ft 501 kts 117°
2026-04-20 17:44 43.61984 15.37538 38981 ft 500 kts 117°
2026-04-20 17:44 43.58837 15.46088 38978 ft 500 kts 117°
2026-04-20 17:45 43.55688 15.54626 38986 ft 499 kts 117°
2026-04-20 17:45 43.52535 15.63150 38969 ft 499 kts 117°
2026-04-20 17:46 43.49371 15.71665 38977 ft 499 kts 117°
2026-04-20 17:46 43.46227 15.80100 38979 ft 499 kts 117°
2026-04-20 17:47 43.43054 15.88584 38978 ft 498 kts 117°
2026-04-20 17:47 43.39879 15.97058 38974 ft 498 kts 117°
2026-04-20 17:48 43.36696 16.05518 38975 ft 498 kts 117°
2026-04-20 17:48 43.33511 16.13967 38975 ft 498 kts 118°
2026-04-20 17:49 43.30314 16.22399 38973 ft 497 kts 118°
2026-04-20 17:49 43.27119 16.30818 38976 ft 497 kts 118°
2026-04-20 17:50 43.23947 16.39171 38987 ft 497 kts 118°
2026-04-20 17:50 43.20743 16.47575 38971 ft 497 kts 118°
2026-04-20 17:51 43.17526 16.55977 38976 ft 498 kts 118°
2026-04-20 17:51 43.14304 16.64370 38987 ft 498 kts 118°
2026-04-20 17:52 43.11075 16.72750 38985 ft 498 kts 118°
2026-04-20 17:52 43.07865 16.81065 38993 ft 498 kts 118°
2026-04-20 17:53 43.04628 16.89425 38992 ft 498 kts 118°
2026-04-20 17:53 43.01382 16.97783 38997 ft 497 kts 118°
2026-04-20 17:54 42.98133 17.06130 39003 ft 497 kts 118°
2026-04-20 17:54 42.94887 17.14452 39003 ft 497 kts 118°
2026-04-20 17:55 42.91631 17.22753 39001 ft 496 kts 118°
2026-04-20 17:55 42.88397 17.30985 38992 ft 495 kts 118°
2026-04-20 17:56 42.85133 17.39253 38994 ft 495 kts 118°
2026-04-20 17:56 42.81864 17.47519 39002 ft 495 kts 118°
2026-04-20 17:57 42.78592 17.55764 39001 ft 495 kts 118°
2026-04-20 17:57 42.75338 17.63951 39002 ft 495 kts 118°
2026-04-20 17:58 42.72053 17.72188 39002 ft 495 kts 119°
2026-04-20 17:58 42.68772 17.80416 39004 ft 495 kts 118°
2026-04-20 17:59 42.65485 17.88620 39002 ft 494 kts 119°
2026-04-20 17:59 42.62211 17.96750 39000 ft 494 kts 119°
2026-04-20 18:00 42.58916 18.04917 38995 ft 493 kts 119°
2026-04-20 18:00 42.55612 18.13085 38981 ft 493 kts 119°
2026-04-20 18:01 42.52311 18.21233 38989 ft 493 kts 119°
2026-04-20 18:01 42.49026 18.29327 38990 ft 493 kts 119°
2026-04-20 18:02 42.45703 18.37452 38992 ft 493 kts 119°
2026-04-20 18:02 42.42378 18.45569 39000 ft 493 kts 119°
2026-04-20 18:03 42.39064 18.53676 39023 ft 492 kts 119°
2026-04-20 18:03 42.35745 18.61760 39027 ft 492 kts 119°
2026-04-20 18:04 42.32439 18.69780 39028 ft 491 kts 119°
2026-04-20 18:04 42.29106 18.77840 39032 ft 491 kts 120°
2026-04-20 18:05 42.24496 18.90172 39025 ft 490 kts 114°
2026-04-20 18:05 42.21754 18.98589 39024 ft 490 kts 114°
2026-04-20 18:06 42.18977 19.06916 39025 ft 490 kts 115°
2026-04-20 18:06 42.16577 19.13827 39032 ft 490 kts 115°
2026-04-20 18:07 42.13332 19.23059 39029 ft 489 kts 115°
2026-04-20 18:07 42.10426 19.31345 39030 ft 489 kts 115°
2026-04-20 18:08 42.07532 19.39624 39027 ft 489 kts 115°
2026-04-20 18:08 42.04657 19.47833 39036 ft 488 kts 115°
2026-04-20 18:09 42.01748 19.56088 39033 ft 488 kts 115°
2026-04-20 18:09 41.98839 19.64316 39035 ft 487 kts 115°
2026-04-20 18:10 41.95927 19.72531 39039 ft 487 kts 115°
2026-04-20 18:10 41.93035 19.80692 39041 ft 487 kts 115°
2026-04-20 18:11 41.90119 19.88895 39037 ft 487 kts 115°
2026-04-20 18:11 41.87197 19.97090 39039 ft 487 kts 115°
2026-04-20 18:12 41.84265 20.05284 39027 ft 487 kts 115°
2026-04-20 18:12 41.81346 20.13408 39027 ft 487 kts 116°
2026-04-20 18:13 41.78399 20.21571 39038 ft 486 kts 115°
2026-04-20 18:13 41.75456 20.29707 39045 ft 485 kts 115°
2026-04-20 18:14 41.72520 20.37822 39042 ft 485 kts 115°
2026-04-20 18:14 41.69582 20.45936 39042 ft 484 kts 116°
2026-04-20 18:15 41.66639 20.53977 39037 ft 485 kts 117°
2026-04-20 18:15 41.63436 20.61915 39018 ft 486 kts 120°
2026-04-20 18:16 41.60044 20.69731 39017 ft 486 kts 121°
2026-04-20 18:16 41.56667 20.77543 39009 ft 486 kts 120°
2026-04-20 18:17 41.53346 20.85404 39003 ft 486 kts 119°
2026-04-20 18:17 41.50064 20.93218 39000 ft 486 kts 120°
2026-04-20 18:18 41.46742 21.01079 38985 ft 487 kts 120°
2026-04-20 18:18 41.43403 21.08926 38991 ft 487 kts 120°
2026-04-20 18:19 41.40055 21.16769 38993 ft 487 kts 120°
2026-04-20 18:19 41.36727 21.24547 39002 ft 487 kts 120°
2026-04-20 18:20 41.33372 21.32375 38991 ft 487 kts 120°
2026-04-20 18:20 41.30018 21.40187 38995 ft 486 kts 120°
2026-04-20 18:21 41.26655 21.47993 38999 ft 486 kts 120°
2026-04-20 18:21 41.23305 21.55733 39000 ft 487 kts 120°
2026-04-20 18:22 41.19922 21.63530 38993 ft 487 kts 120°
2026-04-20 18:22 41.16542 21.71318 39002 ft 487 kts 120°
2026-04-20 18:23 41.13152 21.79105 39009 ft 487 kts 120°
2026-04-20 18:23 41.09755 21.86890 38988 ft 488 kts 120°
2026-04-20 18:24 41.06129 21.94391 38981 ft 487 kts 128°
2026-04-20 18:24 41.02048 22.01550 38981 ft 487 kts 127°
2026-04-20 18:25 40.97969 22.08709 38982 ft 487 kts 128°
2026-04-20 18:25 40.93883 22.15871 38991 ft 487 kts 127°
2026-04-20 18:26 40.89824 22.22975 38973 ft 487 kts 128°
2026-04-20 18:26 40.85728 22.30109 38969 ft 487 kts 128°
2026-04-20 18:27 40.81625 22.37240 38967 ft 488 kts 128°
2026-04-20 18:27 40.77518 22.44367 38887 ft 488 kts 128°
2026-04-20 18:28 40.75465 22.47928 38647 ft 486 kts 127°
2026-04-20 18:28 40.73423 22.51470 38381 ft 485 kts 127°
2026-04-20 18:28 40.71410 22.54954 38099 ft 484 kts 127°
2026-04-20 18:28 40.69366 22.58484 37415 ft 484 kts 127°
2026-04-20 18:29 40.67322 22.62002 36671 ft 484 kts 127°
2026-04-20 18:29 40.65271 22.65525 35896 ft 484 kts 127°
2026-04-20 18:29 40.63223 22.69048 35088 ft 486 kts 127°
2026-04-20 18:29 40.61166 22.72594 34195 ft 488 kts 127°
2026-04-20 18:30 40.59102 22.76149 33256 ft 490 kts 127°
2026-04-20 18:30 40.57042 22.79691 32663 ft 483 kts 126°
2026-04-20 18:30 40.55036 22.83134 32030 ft 478 kts 126°
2026-04-20 18:30 40.53021 22.86577 31444 ft 473 kts 127°
2026-04-20 18:31 40.51021 22.89989 30830 ft 469 kts 127°
2026-04-20 18:31 40.49036 22.93369 30230 ft 466 kts 127°
2026-04-20 18:31 40.46845 22.96491 29581 ft 463 kts 137°
2026-04-20 18:31 40.44326 22.99075 29001 ft 457 kts 148°
2026-04-20 18:32 40.41570 23.01092 28426 ft 451 kts 157°
2026-04-20 18:32 40.38672 23.02606 27860 ft 446 kts 161°
2026-04-20 18:32 40.35785 23.04043 27301 ft 441 kts 161°
2026-04-20 18:32 40.32926 23.05464 26756 ft 437 kts 161°
2026-04-20 18:33 40.30134 23.06852 26232 ft 434 kts 161°
2026-04-20 18:33 40.27326 23.08245 25708 ft 430 kts 161°
2026-04-20 18:33 40.24538 23.09624 25196 ft 427 kts 161°
2026-04-20 18:33 40.21775 23.10992 24698 ft 423 kts 161°
2026-04-20 18:34 40.19030 23.12354 24212 ft 420 kts 161°
2026-04-20 18:34 40.16308 23.13703 23720 ft 417 kts 161°
2026-04-20 18:34 40.13601 23.15041 23195 ft 414 kts 161°
2026-04-20 18:34 40.10919 23.16366 22712 ft 410 kts 161°
2026-04-20 18:35 40.08269 23.17676 22237 ft 405 kts 161°
2026-04-20 18:35 40.05642 23.18974 21758 ft 402 kts 161°
2026-04-20 18:35 40.03075 23.20239 21290 ft 398 kts 161°
2026-04-20 18:35 40.00495 23.21509 20795 ft 395 kts 161°
2026-04-20 18:36 39.97932 23.22768 20319 ft 392 kts 161°
2026-04-20 18:36 39.95389 23.24020 19828 ft 390 kts 161°
2026-04-20 18:36 39.92860 23.25266 19340 ft 388 kts 161°
2026-04-20 18:36 39.90344 23.26504 18848 ft 386 kts 161°
2026-04-20 18:37 39.87837 23.27737 18359 ft 384 kts 161°
2026-04-20 18:37 39.85372 23.28948 17837 ft 383 kts 161°
2026-04-20 18:37 39.82894 23.30162 17349 ft 379 kts 161°
2026-04-20 18:37 39.80432 23.31363 16877 ft 376 kts 161°
2026-04-20 18:38 39.77992 23.32553 16408 ft 373 kts 161°
2026-04-20 18:38 39.75568 23.33736 15930 ft 371 kts 161°
2026-04-20 18:38 39.73161 23.34906 15476 ft 368 kts 161°
2026-04-20 18:38 39.70767 23.36070 15015 ft 366 kts 161°
2026-04-20 18:39 39.68386 23.37229 14553 ft 365 kts 161°
2026-04-20 18:39 39.66016 23.38383 14092 ft 363 kts 161°
2026-04-20 18:39 39.63654 23.39538 13606 ft 362 kts 161°
2026-04-20 18:39 39.61336 23.40674 13123 ft 359 kts 161°
2026-04-20 18:40 39.58976 23.41828 12650 ft 356 kts 161°
2026-04-20 18:40 39.56696 23.42937 12186 ft 353 kts 161°
2026-04-20 18:40 39.54406 23.44046 11695 ft 350 kts 161°
2026-04-20 18:40 39.52134 23.45142 11234 ft 347 kts 161°
2026-04-20 18:41 39.49880 23.46229 10760 ft 345 kts 161°
2026-04-20 18:41 39.47641 23.47308 10289 ft 342 kts 161°
2026-04-20 18:41 39.45446 23.48370 10130 ft 330 kts 161°
2026-04-20 18:41 39.43341 23.49395 10015 ft 317 kts 161°
2026-04-20 18:42 39.41303 23.50388 9782 ft 310 kts 161°
2026-04-20 18:42 39.39297 23.51362 9415 ft 307 kts 161°
2026-04-20 18:42 39.37334 23.52313 8998 ft 305 kts 161°
2026-04-20 18:42 39.35356 23.53268 8598 ft 302 kts 161°
2026-04-20 18:43 39.33389 23.54215 8203 ft 300 kts 161°
2026-04-20 18:43 39.31439 23.55150 7797 ft 298 kts 162°
2026-04-20 18:43 39.29504 23.56077 7407 ft 295 kts 161°
2026-04-20 18:43 39.27588 23.56999 7030 ft 293 kts 161°
2026-04-20 18:44 39.25692 23.57912 6643 ft 290 kts 161°
2026-04-20 18:44 39.23808 23.58819 6268 ft 288 kts 162°
2026-04-20 18:44 39.21967 23.59706 5879 ft 284 kts 162°
2026-04-20 18:44 39.20126 23.60594 5504 ft 281 kts 162°
2026-04-20 18:45 39.18316 23.61468 5160 ft 275 kts 162°
2026-04-20 18:45 39.16576 23.62306 5090 ft 259 kts 162°
2026-04-20 18:45 39.14943 23.63092 5098 ft 242 kts 162°
2026-04-20 18:45 39.13414 23.63829 5098 ft 229 kts 162°
2026-04-20 18:46 39.12006 23.64777 5106 ft 230 kts 146°
2026-04-20 18:46 39.10865 23.66220 5109 ft 232 kts 126°
2026-04-20 18:46 39.10135 23.68066 5113 ft 233 kts 106°
2026-04-20 18:46 39.09895 23.70121 5115 ft 233 kts 90°
2026-04-20 18:47 39.09927 23.72173 5113 ft 232 kts 82°
2026-04-20 18:47 39.10389 23.74143 5119 ft 230 kts 58°
2026-04-20 18:47 39.11350 23.75743 5118 ft 224 kts 37°
2026-04-20 18:47 39.12646 23.76793 5131 ft 220 kts 18°
2026-04-20 18:48 39.14116 23.77208 5114 ft 214 kts 357°
2026-04-20 18:48 39.15570 23.76953 5118 ft 210 kts 338°
2026-04-20 18:48 39.16848 23.76098 5117 ft 207 kts 320°
2026-04-20 18:48 39.17813 23.74778 5117 ft 205 kts 301°
2026-04-20 18:49 39.18394 23.73113 5117 ft 204 kts 283°
2026-04-20 18:49 39.18547 23.71295 5114 ft 205 kts 270°
2026-04-20 18:49 39.18501 23.69458 5111 ft 205 kts 268°
2026-04-20 18:49 39.18408 23.67622 5108 ft 206 kts 267°
2026-04-20 18:50 39.18305 23.65783 5105 ft 206 kts 267°
2026-04-20 18:50 39.18267 23.63937 4956 ft 207 kts 281°
2026-04-20 18:50 39.18912 23.62361 4810 ft 199 kts 316°
2026-04-20 18:50 39.19675 23.61739 4707 ft 197 kts 338°
2026-04-20 18:51 39.21492 23.61542 4434 ft 196 kts 356°
2026-04-20 18:51 39.22836 23.61533 4200 ft 195 kts 355°
2026-04-20 18:51 39.24196 23.61510 4003 ft 195 kts 355°
2026-04-20 18:51 39.25554 23.61471 3760 ft 195 kts 355°
2026-04-20 18:52 39.26914 23.61426 3506 ft 195 kts 354°
2026-04-20 18:52 39.28275 23.61380 3257 ft 196 kts 355°
2026-04-20 18:52 39.29639 23.61337 2999 ft 196 kts 355°
2026-04-20 18:52 39.30985 23.61227 2853 ft 187 kts 342°
2026-04-20 18:53 39.31733 23.60777 2772 ft 175 kts 318°
2026-04-20 18:53 39.32395 23.59566 2619 ft 160 kts 283°
2026-04-20 18:53 39.32343 23.57845 2448 ft 137 kts 246°
2026-04-20 18:53 39.31804 23.56879 2374 ft 132 kts 224°
2026-04-20 18:54 39.31129 23.56092 2266 ft 131 kts 217°
2026-04-20 18:54 39.30333 23.55541 2163 ft 130 kts 202°
2026-04-20 18:54 39.29477 23.55174 2063 ft 129 kts 200°
2026-04-20 18:54 39.28915 23.54931 2003 ft 129 kts 200°
2026-04-20 18:55 39.28068 23.54564 1900 ft 128 kts 200°
2026-04-20 18:55 39.27225 23.54197 1820 ft 128 kts 200°
2026-04-20 18:55 39.26096 23.53738 1676 ft 129 kts 197°
2026-04-20 18:55 39.25226 23.53450 1485 ft 129 kts 195°
2026-04-20 18:56 39.24363 23.53145 1288 ft 128 kts 197°
2026-04-20 18:56 39.23513 23.52804 1130 ft 128 kts 200°
2026-04-20 18:56 39.22662 23.52442 933 ft 130 kts 196°
2026-04-20 18:56 39.22083 23.52238 829 ft 130 kts 195°
2026-04-20 18:57 39.21211 23.51908 666 ft 131 kts 197°
2026-04-20 18:57 39.20347 23.51536 469 ft 130 kts 197°
2026-04-20 18:57 39.19497 23.51150 327 ft 130 kts 198°
2026-04-20 18:57 39.18367 23.50661 60 ft 129 kts 199°
2026-04-20 18:58 39.17912 23.50451 41 ft 55 kts 200°
2026-04-20 18:58 39.17711 23.50321 40 ft 20 kts 245°
2026-04-20 18:58 39.17638 23.50228 40 ft 6 kts 214°
2026-04-20 18:58 39.17617 23.50212 40 ft 5 kts 207°
2026-04-20 18:59 39.17601 23.50186 40 ft 3 kts 241°
2026-04-20 18:59 39.17602 23.50169 40 ft 2 kts 276°
2026-04-20 18:59 39.17605 23.50160 40 ft 1 kts 295°
2026-04-20 18:59 39.17625 23.50159 40 ft 3 kts 10°
2026-04-20 19:00 39.17628 23.50171 40 ft 0 kts 82°
2026-04-20 19:00 39.17626 23.50180 40 ft 1 kts 107°
2026-04-20 19:00 39.17624 23.50188 40 ft 0 kts 108°